Theta_e
307 307 308 309 309 309 308 308 307 307 307 307 307 307 308 309 319 318 322 320 319 318 317 317 317 317 316 319 324 326 338 340 339 339 339 336 341 340 338 339 338 337 338 336 335
307 308 308 309 309 310 309 308 307 307 308 308 308 308 308 313 321 320 322 321 319 318 318 315 316 318 321 320 323 326 332 338 335 337 343 342 342 341 339 340 340 340 339 340 341
308 308 309 310 310 310 310 309 308 308 308 308 308 308 309 320 323 324 323 323 321 317 315 315 316 322 323 324 324 335 335 337 338 342 341 342 343 340 339 342 343 342 344 341 336
308 309 309 310 310 311 311 310 309 308 308 308 309 309 312 321 323 323 321 321 317 315 315 318 321 331 335 335 333 338 336 339 341 341 342 343 339 342 341 342 340 339 340 341 337
308 309 310 311 311 311 311 310 309 308 308 308 309 309 314 320 322 324 319 317 315 315 317 320 324 331 338 338 339 342 342 341 340 341 339 338 339 341 342 340 337 339 341 340 335
309 310 311 311 311 311 311 311 310 309 309 308 309 310 314 322 321 321 316 317 316 317 319 321 326 331 332 333 338 342 342 342 341 339 338 337 335 337 342 340 340 340 342 341 337
310 311 311 312 312 311 311 311 312 311 310 309 309 313 316 321 321 322 320 318 317 317 321 319 320 326 334 339 341 343 346 344 342 340 339 334 339 342 342 340 342 343 343 342 335
311 311 312 312 312 312 312 315 314 318 311 310 312 317 320 317 319 321 322 322 320 318 319 319 321 328 334 336 337 337 338 342 340 340 340 337 341 338 339 341 342 344 343 341 336
311 312 312 312 312 312 315 315 317 314 313 313 315 316 319 319 320 320 322 319 317 318 318 319 324 332 333 336 337 334 339 340 343 340 342 338 340 339 337 336 342 344 345 341 336
312 312 312 312 312 312 316 314 316 316 315 317 317 319 320 321 320 320 320 319 320 321 324 325 325 333 334 336 334 339 336 339 342 341 342 343 341 339 336 336 340 343 347 342 338
313 313 313 313 313 313 316 315 316 318 315 316 317 317 317 319 319 320 319 320 322 325 328 325 329 333 335 333 328 329 337 343 342 340 343 347 345 340 340 339 343 342 346 344 340
313 314 314 314 313 313 315 315 313 313 317 314 313 314 315 318 321 321 320 324 325 327 325 327 330 328 326 324 329 336 342 343 340 338 342 344 347 344 343 342 341 340 340 344 341
313 314 314 314 313 312 313 313 311 311 317 317 316 317 319 319 322 322 323 325 326 327 327 330 328 325 330 335 338 340 341 342 342 341 340 342 344 343 340 340 340 340 337 339 342
314 314 314 314 312 312 311 313 314 312 322 323 321 321 319 320 323 321 322 326 326 328 327 328 325 329 332 333 334 337 335 340 341 341 345 339 341 340 341 340 338 342 337 341 342
314 314 314 314 313 313 313 313 315 317 329 325 322 319 318 322 323 324 323 326 328 327 328 328 326 327 331 331 334 338 338 338 336 341 343 343 342 339 339 340 339 339 338 339 342
314 314 314 314 314 313 313 316 317 322 328 324 320 319 321 321 322 324 325 325 325 326 326 326 325 326 333 334 335 335 336 335 335 337 341 341 343 343 344 339 338 337 338 338 340
314 314 314 314 314 313 313 318 319 326 322 327 320 320 321 322 323 325 326 327 328 331 331 329 329 333 333 335 333 335 340 341 341 342 342 342 344 341 339 337 337 338 338 336 337
314 314 314 313 314 317 315 319 324 322 327 326 323 319 322 323 324 324 326 327 325 327 328 330 331 334 328 335 337 338 336 336 337 338 336 341 346 342 337 336 335 335 339 337 339
314 314 314 314 317 315 319 318 320 325 327 324 323 321 322 322 323 324 327 327 327 328 330 332 333 332 330 328 334 336 334 331 341 340 342 341 342 339 337 339 337 337 339 339 337
313 315 318 314 313 315 319 315 321 322 324 322 326 321 323 323 325 325 326 326 326 326 328 333 333 334 331 330 328 332 328 334 336 339 337 340 343 342 342 341 339 337 337 337 334
313 320 317 316 313 318 318 316 318 320 321 320 325 328 322 322 324 324 325 325 326 328 331 333 338 336 334 334 332 331 332 332 336 338 336 337 333 342 342 341 341 337 335 334 332
311 320 317 314 320 313 315 316 316 319 319 317 323 326 329 327 323 323 325 326 330 333 333 334 341 340 335 332 331 329 331 335 334 338 340 340 338 334 339 338 339 339 333 331 331
315 315 317 313 322 319 315 315 317 317 317 320 322 325 327 330 329 323 323 330 335 335 337 337 340 340 336 334 332 336 330 331 336 339 345 338 334 336 339 339 338 338 332 329 328
315 320 320 315 313 319 319 320 320 321 323 325 326 326 326 330 328 333 328 333 333 335 331 340 337 342 338 335 332 336 331 331 337 340 338 338 337 337 341 340 339 336 335 330 328
314 321 321 321 318 317 318 318 319 321 320 324 326 327 326 330 331 334 333 334 333 332 331 337 341 334 331 330 333 333 332 331 334 336 335 334 337 337 339 341 339 338 334 329 328
319 327 324 327 328 326 317 322 319 321 319 328 327 328 328 331 331 331 333 333 332 334 337 332 338 335 335 335 334 336 333 331 332 333 334 339 339 337 338 336 336 336 333 330 329
314 317 323 323 326 325 326 326 320 322 325 326 326 326 330 329 330 329 330 331 333 335 338 339 340 338 335 336 335 335 334 333 333 335 336 338 337 338 339 339 340 337 333 332 330
Wind_Speed
15 16 17 18 20 22 22 21 19 17 15 15 15 16 18 22 5 5 4 7 7 13 5 11 7 4 4 3 2 1 2 4 5 7 5 3 6 7 4 13 12 8 14 11 11
15 16 17 19 21 22 23 22 20 17 16 15 15 17 20 15 5 2 7 9 6 9 5 5 5 5 3 2 2 3 1 3 0 7 6 7 10 7 6 14 15 17 17 17 13
16 17 18 20 22 23 24 22 20 17 16 15 15 17 20 5 1 1 3 6 6 5 3 4 9 3 3 1 3 4 3 6 5 12 8 11 5 3 14 7 12 11 13 16 17
16 17 19 21 23 24 23 22 20 18 16 15 15 16 12 2 5 1 3 5 4 6 6 5 6 4 4 3 3 8 6 5 9 7 5 5 5 6 3 8 11 11 14 16 13
16 18 20 22 23 24 24 23 20 17 15 14 14 15 3 1 3 1 4 4 5 6 5 6 6 6 9 10 14 11 10 9 8 14 16 14 13 4 10 10 8 13 16 13 12
16 19 21 23 24 25 24 24 22 17 13 12 11 11 2 3 1 3 5 6 4 3 1 2 7 13 12 4 4 10 19 15 10 12 8 9 8 4 8 5 5 10 10 10 10
17 20 22 23 25 26 27 26 24 18 10 7 8 6 1 3 4 5 3 3 4 1 2 4 2 4 8 14 14 18 15 12 8 4 6 6 11 7 6 4 8 6 6 8 9
17 20 22 24 25 27 28 28 15 10 1 1 4 2 2 1 4 6 3 5 5 2 3 6 9 10 5 20 9 5 6 5 3 3 3 3 4 2 3 3 7 4 5 7 8
17 19 21 24 25 27 27 19 11 6 6 3 2 1 3 4 3 2 6 4 6 3 3 7 6 8 10 10 6 3 2 4 5 2 1 1 8 9 5 1 1 0 4 5 6
16 18 20 23 24 24 23 8 6 4 5 4 3 2 1 1 4 2 4 5 2 6 5 2 4 6 5 6 6 6 4 4 5 4 2 5 7 11 7 7 5 5 5 7 6
15 17 20 23 24 17 20 5 6 2 6 1 5 3 4 6 4 3 4 5 3 2 3 3 6 6 12 14 2 3 6 8 2 3 2 4 9 13 11 9 7 6 7 8 8
14 17 20 24 22 12 12 6 5 5 6 2 5 6 8 4 2 3 8 4 2 3 3 3 2 2 5 5 7 9 14 6 5 2 0 5 4 8 8 6 8 9 9 9 9
14 17 20 24 12 11 5 5 11 2 2 5 3 3 1 6 2 6 8 4 4 3 3 3 3 1 5 12 13 6 3 8 5 7 6 5 3 7 5 8 8 10 10 10 12
14 17 20 22 3 14 2 12 16 10 2 4 1 1 3 2 2 4 7 3 2 6 5 2 1 6 10 5 2 5 2 9 13 5 1 2 2 6 7 9 10 12 13 12 12
14 17 19 17 10 6 6 19 2 1 2 2 1 1 1 2 2 3 3 2 5 5 4 2 2 3 4 3 3 4 10 11 6 4 2 4 4 3 2 10 13 13 13 12 13
15 17 19 13 14 5 15 15 2 2 3 2 2 1 2 2 1 2 2 4 2 2 3 2 1 3 4 9 6 18 10 6 4 1 3 2 3 3 6 10 8 12 16 14 14
16 18 19 14 5 14 14 2 1 1 2 5 2 0 2 2 1 3 4 4 3 3 3 3 3 4 13 12 7 3 6 2 2 3 2 3 3 7 7 10 8 11 13 12 14
17 19 15 10 10 12 3 2 1 1 3 3 3 0 3 1 1 2 6 6 2 3 3 2 3 6 5 3 6 13 2 3 3 2 1 3 5 1 2 5 7 9 12 12 14
17 12 6 6 6 2 3 1 1 2 3 6 2 2 1 1 0 1 4 6 4 5 3 4 2 1 1 4 5 6 6 3 5 1 3 1 4 9 3 3 6 7 10 13 15
10 6 3 5 4 2 2 2 2 3 4 2 1 1 4 2 2 1 5 4 3 5 1 5 3 2 4 4 8 3 8 2 1 1 2 3 4 4 4 6 8 9 11 12 11
3 1 6 0 3 4 1 3 4 5 5 2 1 1 1 1 2 2 4 2 2 5 3 5 1 2 3 3 5 4 3 5 2 2 1 2 3 5 6 6 11 12 12 12 13
2 1 3 3 2 1 1 2 3 4 3 2 1 1 1 2 2 2 4 3 3 6 6 2 3 3 3 1 2 1 1 4 3 2 0 2 4 0 3 3 9 11 10 11 11
1 1 3 2 2 1 2 3 3 3 3 3 2 1 0 2 2 3 3 1 4 6 7 7 1 3 1 2 2 3 3 3 4 2 5 3 3 2 4 5 7 11 11 12 12
1 1 2 3 1 3 1 2 4 4 4 3 3 2 1 1 0 1 2 2 2 2 6 6 3 4 6 2 2 3 4 5 3 3 4 7 7 4 5 5 7 11 12 14 14
2 1 1 2 2 2 0 1 3 5 3 2 1 0 1 0 1 2 1 1 2 4 3 1 3 2 2 1 2 4 5 9 10 7 7 4 5 2 3 8 9 9 9 12 14
3 2 1 2 1 3 1 2 3 4 4 2 0 6 1 1 1 2 1 2 2 3 2 1 2 2 3 2 1 4 3 5 9 5 9 4 6 5 2 2 6 8 10 13 14
3 2 1 1 3 3 3 3 4 2 5 8 5 5 4 1 4 1 1 4 2 2 2 2 4 2 2 2 1 4 3 3 4 4 4 6 1 2 4 6 8 8 11 15 14
Wind_Direction
5 360 359 358 357 356 356 353 352 352 347 345 343 338 336 338 12 115 170 156 163 173 138 121 136 119 76 84 50 130 110 141 135 161 140 112 116 73 81 87 76 85 84 89 105
1 358 356 354 356 355 354 353 351 352 348 344 344 340 339 344 96 146 160 161 144 168 164 163 130 128 74 55 48 43 73 145 33 130 135 96 93 103 128 107 77 82 85 92 88
358 355 351 354 354 352 351 352 349 349 346 343 344 342 341 353 141 49 200 177 164 179 172 140 125 95 91 87 39 61 109 120 81 120 112 94 87 102 131 101 73 86 89 78 79
353 348 349 354 350 349 348 347 345 344 343 340 343 346 347 27 112 154 166 165 168 169 160 134 131 109 67 77 59 107 73 90 134 97 89 77 95 118 65 91 102 83 109 94 91
347 345 348 349 348 346 344 342 340 336 335 333 341 348 12 84 86 42 157 160 170 172 195 182 137 122 94 105 87 94 104 72 97 95 91 102 79 73 78 86 107 88 87 99 106
347 342 347 346 346 343 341 338 332 325 322 322 337 346 25 107 52 109 133 163 174 204 65 37 81 110 97 81 64 110 111 114 106 102 100 81 56 156 83 76 69 66 86 107 106
343 342 346 346 344 341 339 336 327 316 303 303 332 347 62 120 152 116 115 162 182 179 74 46 64 137 112 99 117 127 109 116 139 119 112 86 61 89 94 74 68 66 119 105 108
342 344 345 346 343 342 342 336 338 346 357 333 339 342 237 236 215 273 220 218 208 214 53 87 87 82 83 121 131 129 145 140 134 160 72 219 146 137 143 55 51 63 144 132 118
342 346 347 345 344 345 345 341 0 38 48 45 89 7 121 317 276 348 164 142 135 131 92 103 77 95 141 139 143 195 167 142 158 247 151 4 147 175 201 244 24 63 122 158 139
343 349 350 347 347 347 349 343 3 26 4 71 69 171 22 319 312 308 186 148 120 116 122 93 84 137 154 204 260 200 188 160 179 165 149 101 145 162 187 210 211 223 185 186 182
345 348 350 346 345 353 12 349 1 9 40 336 300 269 284 298 298 177 149 132 95 91 135 39 157 177 195 238 291 229 147 125 93 65 116 107 170 177 186 199 215 221 204 200 200
343 345 347 344 345 7 32 75 91 296 311 300 257 264 262 259 98 136 153 154 136 147 136 141 80 156 130 165 153 151 131 113 110 55 154 145 170 208 211 216 220 227 212 206 199
340 343 345 345 350 8 54 84 327 198 279 303 242 255 199 181 140 175 176 152 142 129 160 138 67 273 137 134 108 123 135 165 136 119 72 150 217 218 216 225 228 232 234 212 204
338 342 344 351 16 344 30 348 339 162 6 331 294 85 163 234 119 199 197 166 130 170 179 121 76 96 107 108 143 154 202 142 134 178 156 312 297 235 216 237 228 219 206 204 203
334 339 341 350 318 315 323 335 39 156 84 325 270 16 72 227 136 188 193 83 163 176 197 79 36 130 107 57 87 97 138 119 122 91 168 195 260 127 224 248 239 226 215 207 204
327 331 332 334 318 308 327 338 123 282 62 29 302 166 124 350 76 103 142 69 93 115 47 61 86 46 82 53 127 135 114 87 98 113 267 127 276 203 186 222 237 220 221 214 209
321 323 319 316 290 307 326 17 324 40 317 358 357 344 135 169 161 156 150 148 167 161 53 62 34 70 128 102 129 154 153 131 241 216 261 121 234 274 194 210 225 215 211 205 205
318 317 313 315 303 308 349 50 78 350 339 349 351 96 176 170 100 130 133 174 171 101 108 126 136 182 165 185 185 177 222 267 273 238 76 159 242 7 225 273 240 211 200 188 194
319 314 324 324 332 82 75 61 188 197 309 325 313 140 135 157 163 126 164 187 209 176 150 158 197 196 313 144 160 175 212 90 106 13 242 228 271 266 238 219 208 187 185 190 199
320 318 2 16 41 47 80 225 265 240 310 276 48 63 177 166 168 154 174 178 205 184 262 181 152 182 163 131 59 221 132 190 131 157 294 227 281 276 258 219 204 205 207 205 202
313 336 346 109 2 53 177 242 275 260 241 259 341 45 98 222 207 200 182 161 194 148 117 144 186 156 208 206 179 153 170 73 91 317 265 273 297 216 253 232 215 216 209 207 194
81 264 353 13 55 35 170 217 306 282 269 272 249 259 209 147 214 237 223 242 159 156 155 136 128 199 178 63 340 111 165 166 245 207 90 314 274 199 227 260 227 223 217 211 201
79 315 7 22 151 126 289 284 262 296 302 315 289 225 184 186 201 225 247 57 209 160 161 179 144 134 120 173 132 229 168 129 110 144 189 246 290 184 252 257 232 215 205 202 200
126 148 26 59 16 122 30 327 307 307 270 274 273 232 198 70 60 228 238 336 113 117 84 107 136 179 210 152 125 199 200 187 190 217 194 242 294 255 220 223 218 213 209 202 200
22 130 10 163 175 135 195 343 314 320 277 267 236 255 339 24 179 184 155 176 66 157 79 113 150 182 154 171 223 257 227 196 210 234 229 279 219 309 244 222 220 222 208 200 205
150 167 115 103 105 135 151 213 230 259 235 265 255 345 310 274 299 357 164 190 190 157 113 113 137 177 139 85 6 263 251 234 241 224 250 250 263 224 309 214 208 216 205 211 212
142 114 239 104 130 174 200 213 237 242 251 252 311 322 286 297 333 2 76 75 47 128 126 86 138 131 227 345 327 269 277 240 233 238 236 222 152 158 241 238 248 233 217 221 219